Wind_Speed
37 36 34 32 28 28 28 29 30 32 31 32 35 30 28 26 26 26 28 34 39 43 42 41 38 38 36 35 33 29 28 30 30 29 28 29 30 31 33 32 31 34 34 33 33
39 39 35 33 33 30 30 30 30 33 35 36 33 27 26 24 25 27 25 27 34 44 47 46 43 43 38 38 36 36 36 36 33 31 31 30 29 27 28 28 29 31 33 33 35
40 39 35 33 34 34 34 32 35 34 33 33 32 24 22 23 25 27 22 24 25 35 48 50 47 45 43 38 39 38 39 39 36 31 32 32 32 31 28 27 28 29 31 33 34
34 34 34 32 37 36 38 35 35 35 35 34 31 24 24 23 25 23 24 24 25 24 41 50 47 49 49 41 40 41 41 38 39 37 36 36 33 35 33 32 29 29 32 32 32
33 33 33 33 39 36 36 37 35 37 36 37 35 26 25 24 25 23 19 27 24 23 35 47 47 49 52 44 37 45 44 42 41 40 42 39 39 37 37 37 35 31 32 34 36
33 32 34 33 37 35 35 39 36 38 37 38 31 27 26 26 25 22 19 25 22 21 26 44 46 48 51 44 42 43 40 45 46 43 42 44 46 44 45 43 40 39 38 38 37
34 36 38 37 34 37 38 39 40 40 41 40 32 29 29 26 24 23 21 22 17 20 21 35 41 45 52 49 48 43 44 42 45 49 49 49 46 48 48 50 48 43 39 35 39
37 39 40 39 40 39 38 41 42 43 43 39 37 34 32 29 25 24 22 21 20 21 19 26 34 42 46 53 51 45 44 43 46 52 50 51 47 51 51 53 49 47 44 43 42
40 41 40 41 39 39 41 43 44 44 45 41 37 34 33 31 28 26 24 23 25 23 24 25 29 31 36 45 56 55 48 47 47 48 56 57 54 55 52 50 49 48 46 47 45
41 44 44 43 42 40 43 45 45 44 45 43 40 38 34 34 31 32 28 26 28 30 29 29 34 38 35 37 40 53 55 53 51 52 52 54 55 51 51 52 53 51 51 51 53
42 44 47 48 47 45 45 44 43 45 42 44 42 42 40 37 36 36 38 38 32 34 35 36 35 42 46 45 43 40 44 55 58 57 54 56 57 54 55 56 55 56 59 60 58
40 42 46 49 50 49 47 48 47 48 47 43 45 43 41 40 41 40 41 39 39 37 38 41 44 45 44 47 51 52 54 57 60 61 61 60 60 62 61 61 61 61 62 62 61
41 42 43 46 49 50 51 51 51 50 47 45 44 46 45 40 39 43 45 44 42 44 41 44 48 46 49 52 53 55 56 58 61 64 64 63 62 62 64 62 65 65 64 63 63
41 43 44 45 47 50 52 51 51 52 49 46 47 50 50 49 44 44 46 48 48 46 47 49 49 48 52 55 57 58 60 61 62 64 64 64 65 66 68 70 66 66 66 66 67
41 42 42 44 44 45 48 51 51 50 52 48 51 50 50 52 47 47 48 51 51 49 48 53 52 52 54 59 59 58 61 63 64 66 67 66 67 67 71 70 72 68 69 69 71
36 38 39 40 41 42 44 46 46 46 46 45 47 50 51 53 55 53 53 53 53 52 54 59 57 56 59 59 60 63 64 67 66 67 66 69 71 65 72 73 74 76 71 74 76
28 30 32 35 38 41 44 46 48 49 48 47 51 53 54 57 59 60 58 58 58 55 58 58 60 63 64 62 65 67 68 69 71 73 68 73 73 65 75 76 77 74 74 72 77
30 32 35 36 38 40 43 44 46 50 54 56 58 59 60 62 62 63 66 66 62 65 64 67 67 69 65 66 68 67 70 70 74 73 70 72 72 68 76 81 74 70 73 76 79
32 34 36 38 41 43 45 47 50 54 57 59 61 65 66 66 68 68 73 68 67 68 73 73 71 76 75 75 74 72 75 77 80 75 75 72 74 78 84 82 77 77 79 84 80
37 40 43 45 47 49 52 54 57 60 62 64 66 67 70 72 73 76 79 76 77 79 80 81 76 80 83 82 79 84 83 85 86 82 82 77 82 90 93 88 83 88 88 88 90
37 41 44 47 50 53 56 59 62 64 66 68 71 74 78 80 82 85 87 87 83 87 87 88 86 85 89 91 89 90 90 95 92 88 87 87 89 94 99 98 96 100 99 97 97
39 43 46 49 51 53 55 56 57 59 61 63 65 69 74 78 82 87 91 93 95 95 96 96 92 90 93 95 98 99 100 99 95 91 94 95 90 99 103 100 98 104 103 100 102
40 44 48 52 51 55 53 52 50 47 45 45 46 48 51 56 61 67 75 82 89 93 97 99 101 96 97 101 106 104 104 105 106 102 100 105 102 99 107 109 101 113 104 103 104
43 49 53 54 56 50 50 41 37 40 40 41 43 47 52 57 61 65 69 70 71 73 74 77 82 88 91 98 105 105 108 112 111 108 106 108 109 110 112 110 107 109 110 111 110
47 51 52 56 52 45 48 41 41 40 41 43 46 51 55 58 59 56 53 53 54 57 61 61 65 70 75 80 85 88 91 97 104 107 110 107 111 114 112 110 109 114 113 118 116
50 51 54 58 48 46 47 41 41 42 46 49 52 54 55 57 57 54 50 48 46 45 46 47 52 53 56 61 67 73 74 82 91 97 98 103 102 110 109 107 101 110 109 122 119
50 54 56 52 49 49 42 41 42 44 48 48 48 50 53 56 54 49 45 44 45 46 46 47 52 53 55 56 58 63 71 76 83 89 90 93 96 102 102 101 102 108 109 116 105
Wind_Direction
271 276 282 273 255 255 257 263 265 268 274 279 285 287 281 284 285 281 279 266 249 236 230 228 228 217 223 229 236 242 241 234 228 231 233 234 235 236 238 238 237 241 248 249 250
271 275 278 268 251 248 259 259 262 272 284 290 290 282 288 287 295 294 288 280 258 236 228 223 226 220 216 229 230 238 244 239 232 233 236 238 237 236 240 242 243 245 250 252 254
273 274 271 266 247 248 260 264 270 277 287 292 291 281 289 291 299 299 289 295 287 241 224 218 221 223 214 223 228 230 240 245 237 233 236 237 239 237 243 250 251 248 250 251 251
272 267 263 258 246 250 260 267 272 276 286 294 288 279 285 288 299 297 296 305 295 253 227 217 217 221 215 214 227 229 235 239 245 241 240 240 243 251 248 251 254 257 254 254 255
268 263 261 260 247 252 261 266 270 276 282 292 290 277 283 291 293 291 285 280 295 273 232 218 216 220 218 220 222 228 232 236 239 246 247 246 249 252 257 255 255 258 259 258 256
265 263 262 261 250 252 258 263 269 276 283 291 286 277 278 284 291 291 283 277 297 281 242 220 215 218 218 220 224 225 233 237 236 241 247 251 252 253 259 260 262 263 263 261 256
262 262 262 264 259 258 260 265 268 273 279 283 279 281 277 277 283 282 278 268 260 283 241 225 219 218 221 215 222 228 234 235 242 242 247 252 257 253 256 261 263 264 261 261 261
262 260 262 262 265 263 263 262 265 271 277 279 276 275 278 272 275 276 274 256 256 252 255 225 224 221 225 230 225 230 237 236 245 245 245 247 249 250 250 251 252 257 255 261 260
262 260 261 261 266 265 261 268 270 269 274 274 272 272 270 268 268 272 271 265 247 252 236 221 219 224 237 238 233 236 237 233 239 247 246 246 246 246 249 253 255 257 256 257 262
262 259 261 261 263 264 262 264 267 271 269 271 267 262 270 266 263 265 264 268 260 241 244 239 224 220 220 243 249 244 245 246 246 248 250 247 248 247 253 256 259 262 263 262 263
264 261 259 260 261 263 265 267 267 269 269 268 264 265 265 265 260 268 272 270 258 251 241 237 240 233 228 224 225 232 245 246 248 249 251 254 254 251 255 259 260 262 262 263 262
263 265 263 261 260 261 263 265 267 269 269 271 267 262 267 261 259 259 263 271 260 253 248 243 240 236 238 240 240 241 241 244 247 250 250 253 254 256 255 259 261 262 265 266 266
263 266 267 264 262 262 263 265 267 269 269 270 267 261 261 264 268 259 260 262 269 259 251 247 246 242 240 240 241 244 245 246 246 249 252 254 256 258 261 257 263 265 264 266 267
266 268 269 268 266 265 266 266 267 270 269 269 262 261 261 263 267 265 258 258 260 264 255 253 251 248 247 246 245 245 246 247 248 249 251 252 254 256 258 260 258 261 262 261 262
269 269 268 267 267 265 265 266 268 269 270 267 267 265 265 262 262 262 257 256 256 257 258 254 254 255 251 250 250 251 251 251 252 253 253 256 255 258 260 262 263 258 261 261 263
268 269 269 268 266 267 266 265 265 264 266 266 265 263 260 256 260 260 258 258 257 260 259 256 255 252 252 251 252 252 252 253 254 253 255 257 258 258 262 262 262 264 261 264 264
275 276 275 271 270 270 269 267 265 263 261 264 266 267 263 259 262 265 264 262 263 256 257 256 257 255 251 254 252 252 252 253 253 255 253 255 257 257 260 261 259 263 265 264 261
272 274 275 275 275 274 274 274 272 269 264 262 263 264 263 263 261 261 264 266 260 261 259 258 259 258 254 252 252 255 256 255 255 256 254 254 256 255 254 256 258 258 260 260 261
282 282 282 281 280 278 276 273 269 268 267 265 264 265 264 264 265 263 263 262 262 260 261 261 258 261 259 255 256 255 257 256 256 254 256 256 260 260 256 256 257 258 258 260 262
283 284 283 283 282 281 279 276 275 274 272 271 270 269 268 267 265 265 264 260 261 259 260 260 259 260 258 258 257 257 255 256 258 256 256 256 257 258 260 260 262 260 259 259 262
285 286 288 288 288 285 282 279 278 276 274 273 272 271 270 270 269 268 267 266 261 260 259 260 260 258 260 261 260 260 259 258 255 258 258 257 257 258 261 262 260 261 260 260 261
297 299 302 301 298 297 293 290 286 281 278 277 274 273 271 271 269 268 267 267 266 264 264 262 259 258 259 261 261 260 259 261 261 260 259 257 256 258 259 259 262 262 261 261 262
303 306 307 309 306 308 302 297 292 288 286 286 287 286 284 282 280 277 275 273 271 269 267 266 265 262 261 259 257 258 261 261 260 257 256 258 257 253 259 259 259 261 261 262 263
302 307 308 310 311 309 310 305 301 296 295 293 292 293 293 292 291 288 284 280 276 272 269 266 265 264 262 261 261 260 258 257 257 257 257 259 259 259 258 259 258 261 262 261 261
307 309 309 313 313 307 312 301 299 295 292 292 294 297 300 303 304 301 293 285 278 276 274 272 270 268 264 261 260 259 259 261 261 258 256 254 255 256 257 256 260 259 260 260 261
309 311 311 314 310 309 310 300 299 302 297 294 296 300 306 310 312 311 303 295 288 283 281 278 274 269 267 266 265 264 262 258 259 259 257 256 255 255 253 253 252 257 257 262 262
312 314 315 312 308 307 302 300 302 305 305 302 302 306 311 314 315 313 306 296 291 290 289 288 286 284 279 273 269 266 261 259 256 256 255 254 253 254 254 255 252 253 255 259 260
Height
10894 10894 10893 10893 10894 10894 10894 10894 10893 10893 10894 10894 10893 10891 10890 10890 10889 10888 10887 10885 10885 10889 10892 10895 10898 10902 10904 10906 10908 10910 10911 10912 10913 10915 10915 10917 10919 10921 10921 10923 10925 10926 10926 10927 10928
10887 10887 10887 10887 10888 10888 10888 10887 10888 10888 10887 10887 10886 10885 10884 10883 10882 10880 10878 10875 10872 10875 10881 10885 10890 10894 10898 10900 10902 10904 10904 10905 10908 10910 10910 10912 10914 10916 10917 10918 10920 10920 10921 10922 10923
10879 10880 10880 10881 10882 10882 10882 10882 10882 10882 10881 10881 10880 10878 10877 10877 10875 10873 10870 10867 10864 10863 10868 10875 10881 10885 10890 10894 10895 10898 10898 10898 10902 10905 10906 10907 10908 10911 10913 10913 10915 10916 10916 10917 10917
10872 10873 10873 10873 10875 10876 10876 10875 10876 10876 10876 10875 10874 10872 10871 10870 10869 10867 10864 10862 10859 10856 10858 10866 10872 10876 10881 10885 10889 10891 10891 10894 10895 10898 10900 10901 10902 10904 10908 10907 10908 10910 10910 10911 10911
10866 10865 10866 10866 10867 10869 10870 10870 10870 10870 10870 10869 10868 10866 10865 10863 10863 10861 10859 10858 10855 10852 10852 10857 10864 10868 10872 10878 10882 10884 10885 10888 10889 10891 10891 10894 10896 10897 10899 10901 10902 10903 10904 10905 10905
10858 10859 10860 10860 10861 10862 10864 10864 10864 10864 10864 10863 10861 10860 10859 10858 10857 10855 10854 10853 10851 10848 10848 10852 10857 10861 10865 10870 10874 10876 10879 10881 10882 10883 10886 10886 10888 10891 10890 10892 10895 10897 10898 10898 10898
10851 10853 10854 10854 10855 10856 10857 10857 10857 10857 10857 10856 10855 10854 10853 10852 10850 10849 10848 10848 10848 10846 10844 10846 10852 10856 10859 10863 10866 10869 10874 10875 10876 10877 10878 10878 10882 10881 10883 10884 10885 10888 10889 10890 10890
10844 10845 10846 10846 10847 10849 10849 10849 10850 10849 10849 10848 10847 10847 10846 10845 10844 10844 10842 10842 10844 10844 10843 10844 10848 10851 10853 10855 10859 10863 10866 10867 10868 10871 10872 10872 10874 10871 10874 10874 10876 10877 10880 10882 10882
10837 10837 10837 10838 10839 10841 10840 10841 10841 10841 10840 10840 10839 10838 10838 10838 10838 10837 10837 10837 10838 10839 10839 10840 10842 10846 10850 10852 10853 10852 10856 10859 10860 10862 10862 10864 10863 10862 10865 10865 10866 10866 10869 10871 10872
10828 10829 10829 10830 10831 10832 10831 10831 10831 10830 10830 10831 10830 10830 10830 10831 10831 10830 10830 10831 10832 10833 10834 10835 10836 10838 10839 10844 10847 10847 10848 10849 10849 10851 10852 10853 10853 10858 10856 10854 10855 10857 10856 10858 10859
10820 10819 10820 10821 10822 10822 10821 10822 10822 10820 10821 10821 10821 10821 10821 10821 10822 10822 10822 10823 10823 10825 10826 10827 10829 10829 10830 10833 10833 10836 10838 10839 10838 10838 10841 10840 10841 10847 10844 10844 10845 10845 10845 10846 10847
10812 10811 10811 10811 10811 10812 10811 10811 10811 10810 10810 10811 10811 10811 10810 10811 10812 10812 10812 10812 10813 10815 10817 10817 10817 10820 10823 10825 10825 10826 10826 10826 10826 10826 10829 10829 10831 10830 10835 10833 10832 10833 10834 10832 10833
10803 10802 10801 10800 10801 10800 10801 10801 10799 10799 10800 10802 10800 10800 10800 10800 10801 10803 10801 10802 10803 10803 10805 10805 10805 10810 10811 10811 10813 10812 10813 10813 10814 10814 10816 10818 10819 10818 10815 10823 10818 10820 10821 10821 10820
10793 10792 10791 10791 10790 10789 10789 10790 10789 10788 10789 10790 10788 10789 10788 10788 10790 10790 10789 10790 10791 10791 10793 10792 10793 10797 10798 10799 10799 10801 10800 10801 10802 10802 10803 10803 10806 10806 10803 10802 10808 10804 10805 10805 10803
10784 10782 10781 10781 10780 10778 10778 10778 10778 10776 10775 10778 10776 10776 10776 10775 10776 10779 10777 10776 10777 10778 10780 10776 10780 10782 10784 10783 10785 10788 10787 10787 10787 10787 10787 10791 10791 10793 10788 10789 10786 10790 10787 10788 10787
10775 10774 10772 10771 10770 10769 10767 10766 10765 10765 10764 10765 10763 10762 10762 10761 10760 10762 10762 10762 10764 10767 10766 10760 10764 10766 10764 10766 10769 10770 10770 10769 10770 10771 10776 10773 10770 10782 10772 10770 10770 10767 10775 10771 10770
10769 10767 10764 10763 10762 10760 10757 10756 10754 10752 10751 10752 10750 10749 10748 10747 10747 10745 10746 10748 10749 10752 10748 10746 10747 10747 10749 10754 10750 10750 10751 10752 10751 10750 10763 10751 10753 10767 10750 10749 10750 10755 10753 10756 10749
10762 10760 10758 10755 10753 10750 10748 10745 10742 10740 10738 10737 10735 10733 10732 10730 10730 10730 10727 10727 10736 10731 10732 10728 10733 10727 10731 10734 10733 10736 10732 10735 10730 10733 10741 10737 10739 10744 10732 10727 10735 10740 10737 10731 10727
10755 10753 10750 10746 10743 10740 10737 10733 10729 10726 10724 10721 10719 10715 10715 10714 10710 10710 10705 10712 10713 10714 10708 10709 10715 10706 10711 10711 10713 10718 10715 10711 10709 10718 10718 10728 10725 10719 10709 10712 10722 10723 10720 10711 10714
10747 10743 10739 10736 10731 10727 10723 10719 10714 10710 10708 10704 10700 10697 10693 10691 10690 10685 10681 10692 10690 10688 10685 10684 10694 10689 10686 10687 10693 10685 10690 10687 10687 10695 10696 10712 10705 10690 10685 10699 10708 10699 10698 10696 10691
10737 10733 10728 10723 10719 10713 10708 10703 10697 10693 10689 10685 10681 10677 10672 10669 10665 10660 10655 10657 10667 10659 10661 10660 10665 10670 10663 10660 10664 10662 10663 10654 10662 10672 10680 10685 10683 10672 10667 10670 10679 10672 10673 10675 10672
10727 10722 10716 10711 10705 10698 10691 10685 10680 10675 10669 10664 10660 10655 10650 10646 10641 10635 10631 10629 10630 10631 10630 10628 10637 10645 10639 10638 10630 10629 10628 10632 10641 10654 10648 10651 10666 10642 10640 10643 10647 10642 10644 10648 10647
10718 10712 10706 10699 10692 10683 10674 10667 10661 10656 10652 10648 10643 10637 10632 10626 10620 10614 10606 10602 10599 10600 10599 10597 10597 10610 10612 10607 10595 10603 10603 10602 10602 10614 10622 10611 10622 10623 10614 10613 10626 10611 10624 10623 10622
10708 10701 10694 10686 10678 10670 10662 10654 10649 10644 10640 10635 10630 10623 10617 10609 10603 10593 10583 10576 10572 10569 10568 10568 10565 10566 10573 10569 10564 10572 10571 10563 10568 10579 10586 10584 10586 10587 10587 10593 10598 10588 10588 10589 10592
10697 10689 10681 10674 10665 10658 10651 10645 10639 10635 10629 10624 10619 10611 10603 10593 10581 10572 10561 10553 10549 10545 10543 10543 10539 10538 10540 10539 10538 10537 10538 10533 10532 10537 10545 10560 10548 10549 10553 10562 10568 10562 10559 10553 10561
10685 10678 10670 10661 10654 10647 10639 10634 10628 10623 10617 10612 10605 10597 10588 10579 10567 10555 10545 10537 10531 10528 10526 10524 10518 10518 10516 10515 10510 10507 10509 10504 10500 10501 10511 10509 10521 10513 10522 10535 10544 10524 10529 10520 10532
10673 10666 10658 10649 10642 10635 10628 10623 10618 10611 10604 10597 10591 10584 10575 10565 10555 10545 10535 10526 10519 10513 10509 10505 10498 10495 10492 10492 10490 10484 10477 10475 10472 10468 10473 10477 10483 10483 10492 10501 10506 10505 10502 10494 10515